Preview of NWS' New Version of Forecast
This preview is not operational and should not be used for support decisions.

Regional Weather Roundup (RWR)

Issued by National Weather Service (NWS)

                            
000
ASUS44 KMEG 231610
RWRTN 
TENNESSEE HOURLY STATE WEATHER ROUNDUP
NATIONAL WEATHER SERVICE MEMPHIS TN
1100 AM CDT SAT MAR 23 2019

TNZ002-004-019-021-049-052-054-088>092-231700-
WEST TENNESSEE
  
CITY           SKY/WX    TMP DP  RH WIND       PRES   REMARKS
MEMPHIS INTL   FAIR      58  35  42 E6        30.30R                  
NWS MEMPHIS      N/A     59 N/A N/A MISG        N/A                   
JACKSON        FAIR      57  34  41 E6        30.32R                  
DYERSBURG      FAIR      55  35  47 E10       30.33R                  
SOMERVILLE     SUNNY     59  36  41 SE5       30.29R                  
COVINGTON      SUNNY     57  36  44 SE9       30.31R                  
UNION CITY     SUNNY     54  30  40 S8        30.32R                  
BOLIVAR        SUNNY     57  36  44 VRB6      30.30S                  
PARIS          SUNNY     54  28  37 E7        30.32R                  
HUNTINGDON     SUNNY     54  30  40 SE7       30.32R                  
LEXINGTON      SUNNY     54  28  37 SE7       30.32R                  
SELMER         SUNNY     55  32  41 SE6       30.30R                  
SAVANNAH       SUNNY     59  36  41 CALM      30.30R                  
$$

TNZ008-025-027-028-033-062-065-066-231700-
NORTH MIDDLE TENNESSEE
  
CITY           SKY/WX    TMP DP  RH WIND       PRES   REMARKS
NASHVILLE      FAIR      53  23  31 VRB6      30.35S                  
DICKSON        SUNNY     52  23  32 SE8       30.31S                  
CLARKSVILLE    FAIR      51  26  37 E8        30.34S                  
LEBANON        SUNNY     52  25  35 VRB6      30.33S                  
SMYRNA         FAIR      53  25  33 N6        30.36R                  
MURFREESBORO   SUNNY     52  23  32 CALM      30.32S                  
COOKEVILLE     SUNNY     50  23  34 CALM      30.33R                  
GALLATIN       SUNNY     50  25  37 VRB5      30.37F                  
CROSSVILLE     FAIR      49  12  22 NE7       30.31R                  
ROCKWOOD       SUNNY     48  16  27 CALM      30.31S                  
$$

TNZ061-075-076-078-094-096-097-231700-
SOUTH MIDDLE TENNESSEE
  
CITY           SKY/WX    TMP DP  RH WIND       PRES   REMARKS
LAWRENCEBURG   SUNNY     52  30  43 NE7       30.31S                  
LEWISBURG      SUNNY     52  30  43 CALM      30.33S                  
FAYETTEVILLE   SUNNY     54  30  40 VRB5G12   30.31S                  
TULLAHOMA      SUNNY     52  23  32 VRB3      30.31S                  
WINCHESTER     SUNNY     52  27  37 CALM      30.31S                  
MCMINNVILLE    SUNNY     50  25  37 E3        30.33R                  
COLUMBIA       SUNNY     52  30  43 E6G13     30.31S                  
SHELBYVILLE    SUNNY     52  27  37 VRB5      30.33R                  
$$

TNZ017-018-042-046-047-231700-
NORTHEAST TENNESSEE
  
CITY           SKY/WX    TMP DP  RH WIND       PRES   REMARKS
TRI CITIES     FAIR      48  23  37 W8        30.32R                  
ELIZABETHTON   FAIR      48  23  37 VRB6G16   30.31R                  
GREENEVILLE    SUNNY     46  21  36 CALM      30.31S                  
$$

TNZ012-013-036-069-073-074-231700-
CENTRAL EAST TENNESSEE
  
CITY           SKY/WX    TMP DP  RH WIND       PRES   REMARKS
KNOXVILLE      FAIR      53  21  28 MISG      30.32R                  
OAK RIDGE      FAIR      52  21  29 CALM      30.34S                  
DOWNTOWN KNOXV SUNNY     54  25  32 VRB6      30.34S                  
GATLINBURG     SUNNY     52  19  28 CALM      30.32S                  
MORRISTOWN     SUNNY     48  18  29 CALM      30.31S                  
JACKSBORO      SUNNY     50  19  29 SW5       30.36S                  
$$

TNZ083-085-099-231700-
SOUTHEAST TENNESSEE
  
CITY           SKY/WX    TMP DP  RH WIND       PRES   REMARKS
CHATTANOOGA    FAIR      54  25  32 N6        30.33R                  
DAYTON         SUNNY     52  27  37 CALM      30.33S                  
$$

SKY/WX REPORTED AS FAIR MEANS FEW OR NO CLOUDS BELOW
12 THOUSAND FEET.